This is the latest recevied weather packets stored in our database for station/object KY0TEQ-13. If no packets are shown the sender has not sent any weather packets the latest 10 day(s).
| Time | Temp. | Humidity | Pressure | Rain* | Wind** | Luminosity | Snow |
|---|---|---|---|---|---|---|---|
| 1777835479 | 17.22° C | 20% | 1305 hPa | 0 mm | - | 206 W/m² | - |
| 1777835175 | 16.67° C | 22% | 1304.9 hPa | 0 mm | - | 841 W/m² | - |
| 1777834872 | 17.78° C | 20% | 1305.1 hPa | 0 mm | - | 774 W/m² | - |
| 1777834569 | 17.22° C | 20% | 1305.2 hPa | 0 mm | - | 838 W/m² | - |
| 1777834268 | 17.78° C | 21% | 1305.4 hPa | 0 mm | - | 831 W/m² | - |
| 1777833963 | 17.22° C | 22% | 1305.6 hPa | 0 mm | - | 814 W/m² | - |
| 1777833660 | 17.22° C | 22% | 1305.6 hPa | 0 mm | - | 793 W/m² | - |
| 1777833357 | 17.22° C | 21% | 1305.7 hPa | 0 mm | - | 743 W/m² | - |
| 1777833054 | 17.22° C | 21% | 1305.8 hPa | 0 mm | - | 783 W/m² | - |
| 1777832753 | 17.22° C | 20% | 1305.8 hPa | 0 mm | - | 815 W/m² | - |
| 1777832450 | 16.67° C | 22% | 1305.6 hPa | 0 mm | - | 827 W/m² | - |
| 1777832147 | 16.67° C | 22% | 1306 hPa | 0 mm | - | 806 W/m² | - |
| 1777831843 | 15.56° C | 23% | 1306.1 hPa | 0 mm | - | 791 W/m² | - |
| 1777831541 | 16.11° C | 23% | 1306.2 hPa | 0 mm | - | 773 W/m² | - |
| 1777831238 | 15.56° C | 26% | 1306.3 hPa | 0 mm | - | 763 W/m² | - |
| 1777830935 | 15.56° C | 25% | 1306.5 hPa | 0 mm | - | 759 W/m² | - |
| 1777830632 | 15° C | 26% | 1306.3 hPa | 0 mm | - | 755 W/m² | - |
| 1777830324 | 15.56° C | 27% | 1306.5 hPa | 0 mm | - | 751 W/m² | - |
| 1777830020 | 15.56° C | 26% | 1306.6 hPa | 0 mm | - | 748 W/m² | - |
| 1777829715 | 16.11° C | 27% | 1306.6 hPa | 0 mm | - | 744 W/m² | - |
| 1777829411 | 15.56° C | 28% | 1306.7 hPa | 0 mm | - | 689 W/m² | - |
| 1777829109 | 14.44° C | 28% | 1306.8 hPa | 0 mm | - | 734 W/m² | - |
| 1777828801 | 15.56° C | 28% | 1307.1 hPa | 0 mm | - | 677 W/m² | - |
| 1777828497 | 15.56° C | 29% | 1307.1 hPa | 0 mm | - | 640 W/m² | - |
| 1777828195 | 15° C | 29% | 1307.3 hPa | 0 mm | - | 638 W/m² | - |
* Rain latest hour (hover to see other rain measurements)
** Current wind speed in m/s (hover to see current wind gust speed)